| time (UTC) | temp F | wind direction | speed MPH | gust MPH | rain 1hr in | rain 24hr in | rain mn in | humidity % | barometer mb |
| 20260505083319 | 51 | 360 | 0.0 | 1.0 | 0.00 | 0.05 | 0.00 | 53 | 1006.8 |
| 20260505082824 | 51 | 360 | 0.0 | 2.0 | 0.00 | 0.05 | 0.00 | 54 | 1006.5 |
| 20260505082327 | 51 | 360 | 0.0 | 2.0 | 0.00 | 0.05 | 0.00 | 53 | 1006.4 |
| 20260505081829 | 51 | 360 | 0.0 | 1.0 | 0.00 | 0.05 | 0.00 | 53 | 1006.8 |
| 20260505081334 | 51 | 360 | 0.0 | 1.0 | 0.00 | 0.05 | 0.00 | 52 | 1006.9 |
| 20260505080836 | 51 | 360 | 0.0 | 1.0 | 0.00 | 0.05 | 0.00 | 53 | 1006.5 |
| 20260505080319 | 52 | 360 | 0.0 | 1.0 | 0.00 | 0.05 | 0.00 | 55 | 1006.7 |
| 20260505075820 | 52 | 360 | 0.0 | 2.0 | 0.00 | 0.05 | 0.00 | 54 | 1006.9 |
| 20260505075322 | 52 | 360 | 0.0 | 2.0 | 0.00 | 0.05 | 0.00 | 55 | 1007.1 |
| 20260505074825 | 51 | 360 | 0.0 | 3.0 | 0.00 | 0.05 | 0.00 | 56 | 1007.3 |
| 20260505074350 | 51 | 360 | 0.0 | 3.0 | 0.00 | 0.05 | 0.00 | 56 | 1007.3 |
| 20260505073827 | 51 | 360 | 1.0 | 3.0 | 0.00 | 0.05 | 0.00 | 56 | 1007.5 |
| 20260505073342 | 51 | 360 | 0.0 | 2.0 | 0.00 | 0.05 | 0.00 | 56 | 1007.1 |
| 20260505072824 | 52 | 360 | 0.0 | 2.0 | 0.00 | 0.05 | 0.00 | 57 | 1006.8 |
| 20260505072328 | 52 | 360 | 0.0 | 1.0 | 0.00 | 0.05 | 0.00 | 56 | 1006.7 |
| 20260505071829 | 52 | 360 | 0.0 | 1.0 | 0.00 | 0.05 | 0.00 | 55 | 1006.6 |
| 20260505071332 | 53 | 360 | 0.0 | 0.0 | 0.00 | 0.05 | 0.00 | 55 | 1006.5 |
| 20260505070834 | 53 | 360 | 0.0 | 1.0 | 0.00 | 0.05 | 0.00 | 53 | 1006.6 |
| 20260505070317 | 54 | 360 | 0.0 | 1.0 | 0.00 | 0.05 | 0.00 | 51 | 1006.5 |
| 20260505065819 | 54 | 360 | 0.0 | 1.0 | 0.00 | 0.05 | 0.00 | 51 | 1006.4 |
| 20260505065321 | 54 | 360 | 0.0 | 2.0 | 0.00 | 0.05 | 0.00 | 50 | 1006.4 |
| 20260505064844 | 54 | 360 | 0.0 | 2.0 | 0.00 | 0.05 | 0.00 | 50 | 1006.2 |
| 20260505064326 | 54 | 360 | 0.0 | 2.0 | 0.00 | 0.05 | 0.00 | 50 | 1006.3 |
| 20260505063829 | 54 | 360 | 0.0 | 3.0 | 0.00 | 0.05 | 0.00 | 51 | 1006.1 |
| 20260505063333 | 54 | 360 | 0.0 | 3.0 | 0.00 | 0.05 | 0.00 | 50 | 1005.9 |
| 20260505062852 | 54 | 360 | 0.0 | 2.0 | 0.00 | 0.05 | 0.00 | 52 | 1005.6 |
| 20260505062334 | 55 | 360 | 1.0 | 5.0 | 0.00 | 0.05 | 0.00 | 50 | 1005.3 |
| 20260505061836 | 55 | 360 | 1.0 | 5.0 | 0.00 | 0.05 | 0.00 | 50 | 1005.0 |
| 20260505061319 | 55 | 313 | 1.0 | 3.0 | 0.00 | 0.05 | 0.00 | 51 | 1005.0 |
| 20260505060821 | 55 | 96 | 1.0 | 3.0 | 0.00 | 0.05 | 0.00 | 49 | 1005.0 |
| 20260505060323 | 55 | 298 | 1.0 | 4.0 | 0.00 | 0.05 | 0.00 | 49 | 1004.7 |
| 20260505055823 | 56 | 5 | 1.0 | 4.0 | 0.00 | 0.05 | 0.00 | 50 | 1004.6 |
| 20260505055345 | 56 | 317 | 1.0 | 6.0 | 0.00 | 0.05 | 0.00 | 50 | 1004.7 |
| 20260505054848 | 56 | 288 | 2.0 | 6.0 | 0.00 | 0.05 | 0.00 | 46 | 1004.7 |
| 20260505054352 | 57 | 307 | 1.0 | 4.0 | 0.00 | 0.05 | 0.00 | 46 | 1004.5 |
| 20260505053828 | 57 | 293 | 2.0 | 4.0 | 0.00 | 0.05 | 0.00 | 45 | 1004.5 |
| 20260505053332 | 57 | 298 | 2.0 | 4.0 | 0.00 | 0.05 | 0.00 | 45 | 1004.3 |
| 20260505052832 | 57 | 306 | 1.0 | 2.0 | 0.00 | 0.05 | 0.00 | 45 | 1004.0 |
| 20260505052336 | 57 | 317 | 1.0 | 3.0 | 0.00 | 0.05 | 0.05 | 46 | 1004.0 |
| 20260505051818 | 57 | 321 | 1.0 | 3.0 | 0.00 | 0.05 | 0.05 | 46 | 1003.9 |
| 20260505051321 | 58 | 301 | 1.0 | 5.0 | 0.00 | 0.05 | 0.05 | 45 | 1003.7 |
| 20260505050822 | 58 | 295 | 2.0 | 5.0 | 0.00 | 0.05 | 0.05 | 45 | 1003.7 |
| 20260505050345 | 58 | 307 | 1.0 | 4.0 | 0.00 | 0.05 | 0.05 | 45 | 1003.7 |
| 20260505041332 | 59 | 311 | 1.0 | 3.0 | 0.00 | 0.05 | 0.05 | 42 | 1003.6 |
| 20260505040834 | 59 | 313 | 1.0 | 3.0 | 0.00 | 0.05 | 0.05 | 44 | 1003.6 |
| 20260505040337 | 60 | 301 | 1.0 | 4.0 | 0.00 | 0.05 | 0.05 | 43 | 1003.6 |
| 20260505035818 | 60 | 300 | 1.0 | 4.0 | 0.00 | 0.05 | 0.05 | 45 | 1003.6 |
| 20260505035323 | 60 | 300 | 1.0 | 4.0 | 0.00 | 0.05 | 0.05 | 44 | 1003.6 |
| 20260505034826 | 60 | 290 | 1.0 | 6.0 | 0.00 | 0.05 | 0.05 | 45 | 1003.6 |
| 20260505034328 | 61 | 324 | 2.0 | 6.0 | 0.00 | 0.05 | 0.05 | 46 | 1003.6 |
| 20260505033830 | 60 | 296 | 1.0 | 6.0 | 0.00 | 0.05 | 0.05 | 43 | 1003.7 |
| 20260505033334 | 61 | 306 | 1.0 | 6.0 | 0.00 | 0.05 | 0.05 | 46 | 1003.6 |
| 20260505032837 | 61 | 311 | 2.0 | 9.0 | 0.00 | 0.05 | 0.05 | 45 | 1003.7 |
| 20260505032320 | 61 | 314 | 1.0 | 3.0 | 0.00 | 0.05 | 0.05 | 43 | 1003.5 |
| 20260505031819 | 62 | 303 | 1.0 | 3.0 | 0.00 | 0.05 | 0.05 | 44 | 1003.4 |
| 20260505031342 | 62 | 347 | 1.0 | 6.0 | 0.00 | 0.05 | 0.05 | 45 | 1003.5 |
| 20260505030825 | 63 | 335 | 2.0 | 6.0 | 0.00 | 0.05 | 0.05 | 44 | 1003.3 |
| 20260505030349 | 63 | 290 | 1.0 | 4.0 | 0.00 | 0.05 | 0.05 | 45 | 1003.2 |
| 20260505025833 | 63 | 313 | 1.0 | 10.0 | 0.00 | 0.05 | 0.05 | 45 | 1003.2 |
| 20260505025356 | 63 | 321 | 1.0 | 10.0 | 0.00 | 0.05 | 0.05 | 46 | 1003.0 |
| 20260505024838 | 63 | 307 | 1.0 | 3.0 | 0.00 | 0.05 | 0.05 | 48 | 1002.7 |
| 20260505024320 | 63 | 331 | 0.0 | 1.0 | 0.00 | 0.05 | 0.05 | 47 | 1002.7 |
| 20260505023824 | 63 | 331 | 0.0 | 1.0 | 0.00 | 0.05 | 0.05 | 47 | 1002.5 |
| 20260505023345 | 64 | 313 | 0.0 | 2.0 | 0.00 | 0.05 | 0.05 | 46 | 1002.5 |
| 20260505022849 | 64 | 317 | 0.0 | 2.0 | 0.00 | 0.05 | 0.05 | 46 | 1002.5 |
| 20260505022333 | 64 | 306 | 0.0 | 3.0 | 0.00 | 0.05 | 0.05 | 45 | 1002.4 |
| 20260505021835 | 64 | 296 | 0.0 | 3.0 | 0.00 | 0.05 | 0.05 | 45 | 1002.3 |
| 20260505021318 | 65 | 274 | 0.0 | 3.0 | 0.00 | 0.05 | 0.05 | 48 | 1002.3 |
| 20260505020817 | 65 | 274 | 1.0 | 3.0 | 0.00 | 0.05 | 0.05 | 46 | 1002.1 |
| 20260505020323 | 66 | 296 | 1.0 | 5.0 | 0.00 | 0.05 | 0.05 | 47 | 1002.1 |
| 20260505015827 | 66 | 317 | 1.0 | 5.0 | 0.00 | 0.05 | 0.05 | 45 | 1001.8 |
| 20260505015352 | 66 | 326 | 1.0 | 4.0 | 0.00 | 0.05 | 0.05 | 45 | 1001.6 |
| 20260505014833 | 65 | 284 | 2.0 | 4.0 | 0.00 | 0.05 | 0.05 | 50 | 1001.6 |
| 20260505014337 | 65 | 289 | 1.0 | 3.0 | 0.00 | 0.05 | 0.05 | 53 | 1001.2 |
| 20260505013820 | 64 | 324 | 1.0 | 3.0 | 0.00 | 0.05 | 0.05 | 63 | 1001.0 |
| 20260505013342 | 64 | 360 | 0.0 | 1.0 | 0.00 | 0.05 | 0.05 | 68 | 1001.0 |
| 20260505012825 | 65 | 116 | 0.0 | 1.0 | 0.00 | 0.05 | 0.05 | 67 | 1000.9 |
| 20260505012329 | 65 | 121 | 0.0 | 2.0 | 0.00 | 0.05 | 0.05 | 66 | 1000.9 |
| 20260505011833 | 66 | 160 | 0.0 | 2.0 | 0.00 | 0.05 | 0.05 | 68 | 1000.7 |
| 20260505011337 | 66 | 171 | 1.0 | 2.0 | 0.00 | 0.05 | 0.05 | 65 | 1000.7 |
| 20260505010836 | 66 | 346 | 0.0 | 3.0 | 0.00 | 0.05 | 0.05 | 64 | 1000.8 |
| 20260505010320 | 67 | 202 | 0.0 | 3.0 | 0.00 | 0.05 | 0.05 | 65 | 1000.5 |
| 20260505005846 | 67 | 261 | 0.0 | 2.0 | 0.00 | 0.05 | 0.05 | 63 | 1000.0 |
| 20260505005327 | 67 | 302 | 0.0 | 3.0 | 0.00 | 0.05 | 0.05 | 63 | 1000.0 |
| 20260505004832 | 67 | 250 | 0.0 | 3.0 | 0.00 | 0.05 | 0.05 | 65 | 999.8 |
| 20260505004356 | 67 | 229 | 0.0 | 2.0 | 0.00 | 0.05 | 0.05 | 64 | 999.6 |
| 20260505003819 | 67 | 17 | 0.0 | 1.0 | 0.00 | 0.05 | 0.05 | 64 | 999.3 |
| 20260505003322 | 67 | 263 | 0.0 | 2.0 | 0.00 | 0.05 | 0.05 | 63 | 999.1 |
| 20260505002821 | 67 | 302 | 0.0 | 5.0 | 0.02 | 0.05 | 0.05 | 63 | 998.9 |
| 20260505002323 | 67 | 176 | 0.0 | 5.0 | 0.02 | 0.05 | 0.05 | 63 | 998.8 |
| 20260505001827 | 67 | 134 | 0.0 | 3.0 | 0.02 | 0.05 | 0.05 | 62 | 998.8 |
| 20260505001331 | 67 | 97 | 0.0 | 3.0 | 0.02 | 0.05 | 0.05 | 61 | 998.4 |
| 20260505000833 | 66 | 118 | 1.0 | 3.0 | 0.02 | 0.05 | 0.05 | 61 | 998.2 |
| 20260505000335 | 66 | 171 | 0.0 | 2.0 | 0.02 | 0.05 | 0.05 | 63 | 998.2 |
| 20260504235857 | 66 | 155 | 0.0 | 2.0 | 0.02 | 0.05 | 0.05 | 63 | 998.1 |
| 20260504235319 | 66 | 169 | 0.0 | 2.0 | 0.02 | 0.05 | 0.05 | 65 | 998.1 |
| 20260504234823 | 65 | 126 | 0.0 | 2.0 | 0.02 | 0.05 | 0.05 | 66 | 998.0 |
| 20260504234327 | 65 | 155 | 0.0 | 2.0 | 0.02 | 0.05 | 0.05 | 68 | 998.0 |
| 20260504233831 | 64 | 170 | 0.0 | 2.0 | 0.02 | 0.05 | 0.05 | 71 | 998.0 |
| 20260504233335 | 64 | 112 | 1.0 | 2.0 | 0.02 | 0.05 | 0.05 | 73 | 998.1 |
| 20260504232818 | 63 | 123 | 0.0 | 2.0 | 0.00 | 0.03 | 0.03 | 78 | 998.4 |
| 20260504232321 | 63 | 142 | 1.0 | 2.0 | 0.00 | 0.03 | 0.03 | 77 | 998.8 |
| 20260504231820 | 63 | 15 | 0.0 | 3.0 | 0.01 | 0.03 | 0.03 | 80 | 998.4 |
| 20260504231324 | 63 | 157 | 1.0 | 3.0 | 0.03 | 0.03 | 0.03 | 80 | 998.2 |
| 20260504230826 | 63 | 219 | 0.0 | 2.0 | 0.03 | 0.03 | 0.03 | 79 | 998.3 |
| 20260504230331 | 63 | 214 | 1.0 | 2.0 | 0.03 | 0.03 | 0.03 | 77 | 998.3 |
| 20260504225834 | 64 | 292 | 0.0 | 1.0 | 0.03 | 0.03 | 0.03 | 79 | 998.0 |
| 20260504225337 | 64 | 292 | 0.0 | 1.0 | 0.03 | 0.03 | 0.03 | 76 | 998.0 |
| 20260504224820 | 64 | 292 | 0.0 | 5.0 | 0.03 | 0.03 | 0.03 | 74 | 998.2 |
| 20260504224323 | 64 | 312 | 1.0 | 6.0 | 0.03 | 0.03 | 0.03 | 71 | 998.4 |
| 20260504223828 | 65 | 299 | 2.0 | 6.0 | 0.03 | 0.03 | 0.03 | 69 | 998.7 |
| 20260504223332 | 65 | 279 | 3.0 | 6.0 | 0.03 | 0.03 | 0.03 | 70 | 999.1 |
| 20260504222856 | 66 | 286 | 2.0 | 7.0 | 0.03 | 0.03 | 0.03 | 70 | 998.9 |
| 20260504222317 | 67 | 282 | 2.0 | 7.0 | 0.03 | 0.03 | 0.03 | 66 | 999.0 |
| 20260504221822 | 69 | 273 | 1.0 | 8.0 | 0.02 | 0.02 | 0.02 | 66 | 998.9 |
| 20260504221343 | 71 | 296 | 3.0 | 8.0 | 0.00 | 0.00 | 0.00 | 61 | 998.4 |
| 20260504220823 | 72 | 103 | 0.0 | 2.0 | 0.00 | 0.00 | 0.00 | 64 | 997.9 |
| 20260504220327 | 73 | 103 | 0.0 | 2.0 | 0.00 | 0.00 | 0.00 | 61 | 997.8 |
| 20260504215830 | 74 | 5 | 0.0 | 0.0 | 0.00 | 0.00 | 0.00 | 59 | 997.8 |
| 20260504215334 | 74 | 9 | 0.0 | 0.0 | 0.00 | 0.00 | 0.00 | 57 | 997.8 |
| 20260504214836 | 75 | 9 | 0.0 | 4.0 | 0.00 | 0.00 | 0.00 | 53 | 997.8 |
| 20260504214321 | 76 | 5 | 0.0 | 6.0 | 0.00 | 0.00 | 0.00 | 51 | 997.9 |
| 20260504213823 | 77 | 244 | 1.0 | 4.0 | 0.00 | 0.00 | 0.00 | 41 | 998.5 |
| 20260504213329 | 77 | 355 | 0.0 | 3.0 | 0.00 | 0.00 | 0.00 | 39 | 997.9 |
| 20260504212854 | 78 | 306 | 0.0 | 4.0 | 0.00 | 0.00 | 0.00 | 37 | 997.9 |
| 20260504212335 | 78 | 306 | 1.0 | 4.0 | 0.00 | 0.00 | 0.00 | 38 | 998.0 |
| 20260504211839 | 79 | 315 | 0.0 | 11.0 | 0.00 | 0.00 | 0.00 | 35 | 998.1 |
| 20260504211336 | 80 | 292 | 2.0 | 11.0 | 0.00 | 0.00 | 0.00 | 34 | 998.1 |
| 20260504210818 | 81 | 265 | 1.0 | 6.0 | 0.00 | 0.00 | 0.00 | 32 | 998.0 |
| 20260504210322 | 81 | 297 | 1.0 | 6.0 | 0.00 | 0.00 | 0.00 | 32 | 998.1 |
| 20260504205847 | 81 | 252 | 2.0 | 5.0 | 0.00 | 0.00 | 0.00 | 30 | 998.1 |
| 20260504205328 | 81 | 258 | 1.0 | 6.0 | 0.00 | 0.00 | 0.00 | 31 | 998.2 |
| 20260504204833 | 81 | 291 | 2.0 | 6.0 | 0.00 | 0.00 | 0.00 | 31 | 998.2 |
| 20260504204357 | 81 | 207 | 2.0 | 5.0 | 0.00 | 0.00 | 0.00 | 32 | 998.2 |
| 20260504203818 | 81 | 259 | 1.0 | 5.0 | 0.00 | 0.00 | 0.00 | 29 | 998.3 |
| 20260504203321 | 82 | 283 | 1.0 | 5.0 | 0.00 | 0.00 | 0.00 | 35 | 998.3 |
| 20260504202824 | 82 | 273 | 1.0 | 8.0 | 0.00 | 0.00 | 0.00 | 30 | 998.4 |
| 20260504202320 | 83 | 260 | 3.0 | 8.0 | 0.00 | 0.00 | 0.00 | 28 | 998.6 |
| 20260504201824 | 83 | 314 | 2.0 | 4.0 | 0.00 | 0.00 | 0.00 | 28 | 998.6 |
| 20260504201328 | 82 | 279 | 1.0 | 6.0 | 0.00 | 0.00 | 0.00 | 30 | 998.5 |
| 20260504200832 | 81 | 262 | 2.0 | 6.0 | 0.00 | 0.00 | 0.00 | 33 | 998.6 |
| 20260504200334 | 81 | 221 | 2.0 | 5.0 | 0.00 | 0.00 | 0.00 | 32 | 998.7 |
| 20260504195836 | 81 | 5 | 1.0 | 6.0 | 0.00 | 0.00 | 0.00 | 33 | 999.0 |
| 20260504195317 | 81 | 186 | 2.0 | 6.0 | 0.00 | 0.00 | 0.00 | 32 | 999.1 |
| 20260504194843 | 81 | 213 | 0.0 | 6.0 | 0.00 | 0.00 | 0.00 | 34 | 999.0 |
| 20260504194325 | 81 | 248 | 2.0 | 4.0 | 0.00 | 0.00 | 0.00 | 31 | 999.0 |
| 20260504193829 | 81 | 175 | 0.0 | 4.0 | 0.00 | 0.00 | 0.00 | 33 | 999.0 |
| 20260504193331 | 82 | 297 | 1.0 | 8.0 | 0.00 | 0.00 | 0.00 | 33 | 999.1 |
| 20260504192834 | 83 | 228 | 3.0 | 8.0 | 0.00 | 0.00 | 0.00 | 29 | 999.1 |
| 20260504192337 | 83 | 178 | 2.0 | 11.0 | 0.00 | 0.00 | 0.00 | 29 | 998.9 |
| 20260504191830 | 83 | 271 | 1.0 | 11.0 | 0.00 | 0.00 | 0.00 | 33 | 999.1 |
| 20260504191334 | 83 | 36 | 0.0 | 0.0 | 0.00 | 0.00 | 0.00 | 31 | 999.1 |
| 20260504190833 | 83 | 5 | 0.0 | 0.0 | 0.00 | 0.00 | 0.00 | 32 | 999.1 |
| 20260504190336 | 83 | 302 | 0.0 | 0.0 | 0.00 | 0.00 | 0.00 | 30 | 999.3 |
| 20260504185821 | 83 | 282 | 0.0 | 0.0 | 0.00 | 0.00 | 0.00 | 31 | 999.3 |
| 20260504185324 | 83 | 270 | 0.0 | 0.0 | 0.00 | 0.00 | 0.00 | 32 | 999.5 |
| 20260504184849 | 83 | 130 | 0.0 | 0.0 | 0.00 | 0.00 | 0.00 | 32 | 999.5 |
| 20260504184351 | 83 | 232 | 0.0 | 0.0 | 0.00 | 0.00 | 0.00 | 30 | 999.5 |
| 20260504183836 | 82 | 310 | 0.0 | 0.0 | 0.00 | 0.00 | 0.00 | 31 | 999.6 |
| 20260504183318 | 82 | 340 | 0.0 | 0.0 | 0.00 | 0.00 | 0.00 | 29 | 999.5 |
| 20260504182842 | 82 | 331 | 0.0 | 0.0 | 0.00 | 0.00 | 0.00 | 35 | 999.5 |
| 20260504182324 | 82 | 250 | 0.0 | 0.0 | 0.00 | 0.00 | 0.00 | 34 | 999.5 |
| 20260504181823 | 82 | 295 | 0.0 | 0.0 | 0.00 | 0.00 | 0.00 | 33 | 999.5 |
| 20260504181327 | 82 | 281 | 0.0 | 0.0 | 0.00 | 0.00 | 0.00 | 34 | 999.5 |
| 20260504180852 | 82 | 219 | 0.0 | 0.0 | 0.00 | 0.00 | 0.00 | 36 | 999.4 |
| 20260504180353 | 82 | 5 | 0.0 | 0.0 | 0.00 | 0.00 | 0.00 | 36 | 999.4 |
| 20260504175852 | 82 | 304 | 0.0 | 0.0 | 0.00 | 0.00 | 0.00 | 36 | 999.5 |
| 20260504175354 | 82 | 273 | 0.0 | 0.0 | 0.00 | 0.00 | 0.00 | 35 | 999.6 |
| 20260504174836 | 82 | 243 | 0.0 | 0.0 | 0.00 | 0.00 | 0.00 | 33 | 999.6 |
| 20260504174316 | 82 | 330 | 0.0 | 0.0 | 0.00 | 0.00 | 0.00 | 33 | 999.6 |
| 20260504173837 | 82 | 74 | 0.0 | 0.0 | 0.00 | 0.00 | 0.00 | 35 | 999.7 |
| 20260504173320 | 82 | 119 | 0.0 | 0.0 | 0.00 | 0.00 | 0.00 | 36 | 999.6 |
| 20260504172818 | 81 | 19 | 0.0 | 0.0 | 0.00 | 0.00 | 0.00 | 36 | 999.7 |
| 20260504172319 | 81 | 218 | 0.0 | 0.0 | 0.00 | 0.00 | 0.00 | 36 | 999.6 |
| 20260504171821 | 81 | 244 | 0.0 | 0.0 | 0.00 | 0.00 | 0.00 | 39 | 999.7 |
| 20260504171324 | 81 | 110 | 0.0 | 0.0 | 0.00 | 0.00 | 0.00 | 37 | 999.9 |
| 20260504170827 | 80 | 267 | 0.0 | 0.0 | 0.00 | 0.00 | 0.00 | 38 | 999.9 |
| 20260504170329 | 80 | 177 | 0.0 | 0.0 | 0.00 | 0.00 | 0.00 | 39 | 999.9 |
| 20260504160340 | 77 | 169 | 0.0 | 0.0 | 0.00 | 0.00 | 0.00 | 42 | 1000.8 |
| 20260504150827 | 73 | 198 | 0.0 | 0.0 | 0.00 | 0.00 | 0.00 | 47 | 1001.3 |
| 20260504150330 | 72 | 168 | 0.0 | 0.0 | 0.00 | 0.00 | 0.00 | 49 | 1001.3 |
| 20260504140817 | 67 | 35 | 0.0 | 0.0 | 0.00 | 0.00 | 0.00 | 54 | 1002.1 |
| 20260504140320 | 66 | 178 | 0.0 | 0.0 | 0.00 | 0.00 | 0.00 | 53 | 1002.1 |
| 20260504130328 | 58 | 245 | 0.0 | 0.0 | 0.00 | 0.00 | 0.00 | 69 | 1003.1 |
| 20260504110316 | 47 | 360 | 0.0 | 0.0 | 0.00 | 0.00 | 0.00 | 82 | 1003.1 |
| 20260504100350 | 44 | 360 | 0.0 | 0.0 | 0.00 | 0.00 | 0.00 | 86 | 1003.6 |